TimeCDT,TemperatureF,Dew PointF,Humidity,Sea Level PressureIn,VisibilityMPH,Wind Direction,Wind SpeedMPH,Gust SpeedMPH,PrecipitationIn,Events,Conditions,WindDirDegrees,DateUTC
12:50 AM,64.4,62.6,94,29.69,8.0,ENE,5.8,-,N/A,,Overcast,70,2013-09-23 05:50:00
1:45 AM,69.8,62.6,78,30.08,8.0,Calm,Calm,-,N/A,,Mostly Cloudy,0,2013-09-23 06:45:00
2:44 AM,66.2,62.6,88,30.07,8.0,ENE,5.8,-,N/A,Thunderstorm,Overcast,70,2013-09-23 07:44:00
3:44 AM,64.4,62.6,94,29.61,8.0,Calm,Calm,-,N/A,,Overcast,0,2013-09-23 08:44:00
4:46 AM,64.4,62.6,94,30.07,8.0,Calm,Calm,-,N/A,,Overcast,0,2013-09-23 09:46:00
6:50 AM,62.6,62.6,100,29.68,6.0,Calm,Calm,-,N/A,Rain,Light Rain,0,2013-09-23 11:50:00
7:46 AM,62.6,60.8,94,30.09,6.0,Calm,Calm,-,N/A,,Overcast,0,2013-09-23 12:46:00
8:46 AM,64.4,62.6,94,30.12,6.0,Calm,Calm,-,N/A,,Overcast,0,2013-09-23 13:46:00
9:42 AM,69.8,62.6,78,29.75,7.0,Calm,Calm,-,N/A,,Scattered Clouds,0,2013-09-23 14:42:00
10:44 AM,71.6,62.6,73,30.15,7.0,Calm,Calm,-,N/A,,Overcast,0,2013-09-23 15:44:00
11:46 AM,75.2,62.6,65,30.15,8.0,South,5.8,-,N/A,,Mostly Cloudy,180,2013-09-23 16:46:00
12:49 PM,80.6,62.6,54,29.70,9.0,Calm,Calm,-,N/A,,Scattered Clouds,0,2013-09-23 17:49:00
1:41 PM,82.4,60.8,48,30.12,9.0,South,6.9,-,N/A,,Mostly Cloudy,190,2013-09-23 18:41:00
2:48 PM,84.2,62.6,48,30.09,10.0,WSW,6.9,-,N/A,,Mostly Cloudy,240,2013-09-23 19:48:00
3:40 PM,78.8,62.6,57,29.62,9.0,NE,8.1,-,N/A,,Mostly Cloudy,40,2013-09-23 20:40:00
4:48 PM,66.2,62.6,88,30.06,10.0,Calm,Calm,-,N/A,,Mostly Cloudy,0,2013-09-23 21:48:00
5:47 PM,69.8,62.6,78,30.06,10.0,NW,5.8,-,N/A,,Mostly Cloudy,310,2013-09-23 22:47:00
6:53 PM,68.0,62.6,83,29.71,10.0,WNW,5.8,-,N/A,,Mostly Cloudy,290,2013-09-23 23:53:00
7:55 PM,66.2,62.6,88,30.12,8.0,WNW,4.6,-,N/A,,Mostly Cloudy,290,2013-09-24 00:55:00
8:52 PM,66.2,62.6,88,30.12,8.0,WSW,5.8,-,N/A,,Mostly Cloudy,250,2013-09-24 01:52:00
9:42 PM,66.2,60.8,83,29.80,8.0,Calm,Calm,-,N/A,,Overcast,0,2013-09-24 02:42:00
10:46 PM,64.4,60.8,88,30.15,8.0,Calm,Calm,-,N/A,,Mostly Cloudy,0,2013-09-24 03:46:00
11:43 PM,64.4,62.6,94,30.18,8.0,Calm,Calm,-,N/A,,Mostly Cloudy,0,2013-09-24 04:43:00